Location: Austin
(30.3000°N, 97.7500°W)
Time: 09:12:19
(UTC-06:00)

Tiangong - Visible Passes

Search period start: 24 February 2024 00:00
Search period end: 05 March 2024 00:00
Orbit: 375 x 386 km, 41.5° (Epoch: 24 February)

Date Brightness Start Highest point End Pass type
(mag) Time Alt. Az. Time Alt. Az. Time Alt. Az.
24 Feb 0.0 19:09:54 10° SSE 19:11:15 12° SE 19:12:01 11° ESE visible
25 Feb -2.0 19:43:46 10° SW 19:46:45 55° SSE 19:46:45 55° SSE visible
26 Feb 0.2 20:19:42 10° W 20:21:20 24° WNW 20:21:20 24° WNW visible
27 Feb -2.0 19:18:23 10° WSW 19:21:29 70° NNW 19:23:35 19° NE visible
28 Feb -0.2 19:54:45 10° WNW 19:57:16 22° NNW 19:57:50 21° N visible
29 Feb -0.9 18:53:03 10° W 18:55:58 36° NNW 18:58:52 10° NE visible
29 Feb 1.1 20:31:50 10° NW 20:31:55 10° NW 20:31:55 10° NW visible
01 Mar 0.3 19:29:43 10° WNW 19:31:45 16° NNW 19:33:45 10° NNE visible
02 Mar 0.7 20:06:47 10° NNW 20:07:34 11° N 20:07:34 11° N visible
03 Mar 0.5 19:04:31 10° NW 19:06:00 13° N 19:07:30 10° NNE visible
04 Mar 0.5 19:41:08 10° NNW 19:41:52 11° N 19:42:37 10° NNE visible
